| time (UTC) | temp F | wind direction | speed MPH | gust MPH | rain 1hr in | rain 24hr in | rain mn in | humidity % | barometer mb |
| 20260505220008 | 76 | 350 | 10.0 | 17.0 | 0.00 | 0.00 | 0.00 | 38 | 1008.3 |
| 20260505214509 | 75 | 304 | 4.0 | 15.0 | 0.00 | 0.00 | 0.00 | 39 | 1008.4 |
| 20260505213005 | 76 | 295 | 6.0 | 10.0 | 0.00 | 0.00 | 0.00 | 42 | 1008.5 |
| 20260505211502 | 75 | 9 | 5.0 | 7.0 | 0.00 | 0.00 | 0.00 | 45 | 1008.5 |
| 20260505210057 | 74 | 295 | 3.0 | 13.0 | 0.00 | 0.00 | 0.00 | 46 | 1008.6 |
| 20260505204606 | 73 | 328 | 5.0 | 10.0 | 0.00 | 0.00 | 0.00 | 46 | 1008.7 |
| 20260505203106 | 73 | 293 | 6.0 | 10.0 | 0.00 | 0.00 | 0.00 | 47 | 1008.8 |
| 20260505201551 | 72 | 248 | 5.0 | 9.0 | 0.00 | 0.00 | 0.00 | 51 | 1008.9 |
| 20260505200050 | 72 | 321 | 8.0 | 13.0 | 0.00 | 0.00 | 0.00 | 48 | 1009.0 |
| 20260505194602 | 71 | 323 | 4.0 | 13.0 | 0.00 | 0.00 | 0.00 | 48 | 1009.2 |
| 20260505193048 | 72 | 301 | 8.0 | 11.0 | 0.00 | 0.00 | 0.00 | 48 | 1009.1 |
| 20260505191546 | 71 | 329 | 2.0 | 12.0 | 0.00 | 0.00 | 0.00 | 49 | 1009.1 |
| 20260505190044 | 71 | 233 | 7.0 | 9.0 | 0.00 | 0.00 | 0.00 | 50 | 1009.2 |
| 20260505184542 | 70 | 245 | 8.0 | 11.0 | 0.00 | 0.00 | 0.00 | 52 | 1009.3 |
| 20260505183042 | 70 | 281 | 7.0 | 17.0 | 0.00 | 0.00 | 0.00 | 53 | 1009.4 |
| 20260505181537 | 69 | 240 | 1.0 | 9.0 | 0.00 | 0.00 | 0.00 | 56 | 1009.3 |
| 20260505180035 | 68 | 229 | 5.0 | 10.0 | 0.00 | 0.00 | 0.00 | 56 | 1009.3 |
| 20260505174534 | 68 | 259 | 6.0 | 10.0 | 0.00 | 0.00 | 0.00 | 57 | 1009.3 |
| 20260505173041 | 67 | 263 | 5.0 | 12.0 | 0.00 | 0.00 | 0.00 | 56 | 1009.3 |
| 20260505171529 | 67 | 269 | 7.0 | 13.0 | 0.00 | 0.00 | 0.00 | 58 | 1009.3 |
| 20260505170029 | 66 | 281 | 7.0 | 11.0 | 0.00 | 0.00 | 0.00 | 56 | 1009.2 |
| 20260505164544 | 66 | 267 | 6.0 | 9.0 | 0.00 | 0.00 | 0.00 | 57 | 1009.2 |
| 20260505163025 | 66 | 281 | 4.0 | 9.0 | 0.00 | 0.00 | 0.00 | 59 | 1009.1 |
| 20260505161524 | 66 | 203 | 3.0 | 6.0 | 0.00 | 0.00 | 0.00 | 59 | 1009.0 |
| 20260505153016 | 63 | 98 | 4.0 | 5.0 | 0.00 | 0.00 | 0.00 | 62 | 1009.0 |
| 20260505151517 | 63 | 109 | 4.0 | 6.0 | 0.00 | 0.00 | 0.00 | 63 | 1008.8 |
| 20260505140109 | 58 | 74 | 8.0 | 11.0 | 0.00 | 0.00 | 0.00 | 68 | 1008.0 |
| 20260505124544 | 0 | 0.0 | 0.0 | 0.00 | 0.00 | 0.00 | 1007.2 | ||
| 20260505123039 | 0 | 0.0 | 0.0 | 0.00 | 0.00 | 0.00 | 1007.1 | ||
| 20260505121537 | 0 | 0.0 | 0.0 | 0.00 | 0.00 | 0.00 | 1007.0 | ||
| 20260505120030 | 0 | 0.0 | 0.0 | 0.00 | 0.00 | 0.00 | 1006.8 | ||
| 20260505114533 | 0 | 0.0 | 0.0 | 0.00 | 0.00 | 0.00 | 1006.7 | ||
| 20260505113022 | 0 | 0.0 | 0.0 | 0.00 | 0.00 | 0.00 | 1006.6 | ||
| 20260505111517 | 0 | 0.0 | 0.0 | 0.00 | 0.00 | 0.00 | 1006.5 | ||
| 20260505101604 | 57 | 87 | 9.0 | 10.0 | 0.00 | 0.00 | 0.00 | 66 | 1006.1 |
| 20260505100057 | 58 | 111 | 7.0 | 11.0 | 0.00 | 0.00 | 0.00 | 65 | 1006.2 |
| 20260505094559 | 59 | 82 | 7.0 | 9.0 | 0.00 | 0.00 | 0.00 | 64 | 1006.0 |
| 20260505093054 | 58 | 247 | 1.0 | 4.0 | 0.00 | 0.00 | 0.00 | 64 | 1006.0 |
| 20260505091557 | 59 | 39 | 3.0 | 5.0 | 0.00 | 0.00 | 0.00 | 63 | 1005.8 |
| 20260505090057 | 59 | 94 | 4.0 | 6.0 | 0.00 | 0.00 | 0.00 | 62 | 1005.7 |
| 20260505084550 | 60 | 70 | 1.0 | 9.0 | 0.00 | 0.00 | 0.00 | 61 | 1005.7 |
| 20260505083049 | 60 | 66 | 6.0 | 8.0 | 0.00 | 0.00 | 0.00 | 61 | 1005.7 |
| 20260505081557 | 60 | 81 | 5.0 | 8.0 | 0.00 | 0.00 | 0.00 | 63 | 1005.7 |
| 20260505080048 | 59 | 85 | 2.0 | 6.0 | 0.00 | 0.00 | 0.00 | 63 | 1005.6 |
| 20260505074602 | 59 | 81 | 7.0 | 8.0 | 0.00 | 0.00 | 0.00 | 63 | 1005.5 |
| 20260505073038 | 60 | 80 | 3.0 | 6.0 | 0.00 | 0.00 | 0.00 | 63 | 1005.5 |
| 20260505071532 | 58 | 82 | 6.0 | 7.0 | 0.00 | 0.00 | 0.00 | 70 | 1005.3 |
| 20260505070030 | 56 | 93 | 4.0 | 4.0 | 0.00 | 0.00 | 0.00 | 72 | 1005.0 |
| 20260505064527 | 58 | 285 | 1.0 | 4.0 | 0.00 | 0.00 | 0.00 | 68 | 1004.8 |
| 20260505063034 | 61 | 225 | 4.0 | 6.0 | 0.00 | 0.00 | 0.00 | 60 | 1004.7 |
| 20260505061530 | 61 | 101 | 6.0 | 7.0 | 0.00 | 0.00 | 0.00 | 60 | 1004.4 |
| 20260505060025 | 62 | 104 | 6.0 | 13.0 | 0.00 | 0.00 | 0.00 | 58 | 1004.1 |
| 20260505054527 | 64 | 86 | 12.0 | 15.0 | 0.00 | 0.00 | 0.00 | 55 | 1003.9 |
| 20260505053022 | 64 | 108 | 9.0 | 12.0 | 0.00 | 0.00 | 0.00 | 55 | 1003.9 |
| 20260505051522 | 65 | 93 | 12.0 | 16.0 | 0.00 | 0.00 | 0.00 | 54 | 1003.8 |
| 20260505041518 | 65 | 89 | 7.0 | 9.0 | 0.00 | 0.00 | 0.00 | 54 | 1003.7 |
| 20260505040018 | 66 | 89 | 6.0 | 9.0 | 0.00 | 0.00 | 0.00 | 53 | 1003.7 |
| 20260505034519 | 66 | 92 | 6.0 | 8.0 | 0.00 | 0.00 | 0.00 | 54 | 1003.5 |
| 20260505033029 | 66 | 98 | 6.0 | 8.0 | 0.00 | 0.00 | 0.00 | 57 | 1003.4 |
| 20260505031516 | 67 | 122 | 3.0 | 5.0 | 0.00 | 0.00 | 0.00 | 56 | 1003.2 |
| 20260505030016 | 69 | 107 | 4.0 | 5.0 | 0.00 | 0.00 | 0.00 | 54 | 1003.3 |
| 20260505024533 | 72 | 91 | 5.0 | 6.0 | 0.00 | 0.00 | 0.00 | 50 | 1003.2 |
| 20260505023015 | 75 | 91 | 4.0 | 5.0 | 0.00 | 0.00 | 0.00 | 42 | 1003.3 |
| 20260505021528 | 76 | 89 | 4.0 | 5.0 | 0.00 | 0.00 | 0.00 | 37 | 1003.3 |
| 20260505020011 | 77 | 77 | 5.0 | 6.0 | 0.00 | 0.00 | 0.00 | 36 | 1003.3 |
| 20260505014510 | 77 | 84 | 5.0 | 5.0 | 0.00 | 0.00 | 0.00 | 34 | 1003.3 |
| 20260505013009 | 77 | 74 | 4.0 | 6.0 | 0.00 | 0.00 | 0.00 | 35 | 1003.6 |
| 20260505011508 | 78 | 70 | 3.0 | 5.0 | 0.00 | 0.00 | 0.00 | 36 | 1003.7 |
| 20260505010006 | 80 | 67 | 2.0 | 8.0 | 0.00 | 0.00 | 0.00 | 32 | 1003.8 |
| 20260505004513 | 79 | 7 | 4.0 | 11.0 | 0.00 | 0.00 | 0.00 | 32 | 1003.9 |
| 20260505003002 | 79 | 53 | 2.0 | 10.0 | 0.00 | 0.00 | 0.00 | 29 | 1003.8 |
| 20260505001600 | 79 | 338 | 9.0 | 11.0 | 0.00 | 0.00 | 0.00 | 29 | 1003.8 |
| 20260505000058 | 79 | 318 | 9.0 | 15.0 | 0.00 | 0.00 | 0.00 | 26 | 1003.8 |
| 20260504234557 | 79 | 326 | 10.0 | 14.0 | 0.00 | 0.00 | 0.00 | 28 | 1003.7 |
| 20260504233100 | 79 | 329 | 9.0 | 14.0 | 0.00 | 0.00 | 0.00 | 27 | 1003.9 |
| 20260504231549 | 79 | 314 | 8.0 | 11.0 | 0.00 | 0.00 | 0.00 | 30 | 1004.0 |
| 20260504230047 | 79 | 349 | 8.0 | 16.0 | 0.00 | 0.00 | 0.00 | 34 | 1004.1 |
| 20260504224545 | 79 | 308 | 8.0 | 13.0 | 0.00 | 0.00 | 0.00 | 35 | 1004.2 |
| 20260504223052 | 78 | 269 | 4.0 | 10.0 | 0.00 | 0.00 | 0.00 | 35 | 1004.4 |
| 20260504221546 | 78 | 285 | 7.0 | 13.0 | 0.00 | 0.00 | 0.00 | 34 | 1004.5 |